Date String (YYYY-MM-DD hh:mm:ss) UTC,Instrument flags,absolute air pressure of the measurement (hPa),sample flow rate (lpm),inlet stack bypass flow (lpm),air temperature of the measurement (°C),ambient temperature measured by the external sensor (°C),aerosol sample conditioner tube jacket temperature (°C),OPC LED temperature (°C),internal box temperature (°C),relative humidity of the measurement (%),span deviation,mass concentration of particles derived from Lorenz-Mie calculation of OPC scattering (μg/m³),mass concentration of particles derived from Lorenz-Mie calculation of OPC scattering (μg/m³),mass concentration of particles derived from Lorenz-Mie calculation of OPC scattering (μg/m³)
DateTimeUTC,F1_M11,P_M11,Q1_M11,Q2_M11,T1_M11,T2_M11,T3_M11,T4_M11,T5_M11,U1_M11,ZSPAN_M11,X2_M11,X0_M11,X1_M11
2023-07-30 00:00:00,SystemResetWarning,0836.8,5.00,000.00,032.5,027.7,000.0,040.4,031.9,34.7,0000.0,0007.57,0020.46,0006.00
2023-07-30 00:01:00,SystemResetWarning,0836.8,4.99,000.00,032.5,026.6,000.0,040.3,031.8,34.6,0000.0,0007.50,0021.13,0005.99
2023-07-30 00:02:00,SystemResetWarning,0836.8,5.00,000.00,032.4,025.5,000.0,040.1,031.6,34.7,0000.0,0007.50,0021.63,0005.98
2023-07-30 00:03:00,SystemResetWarning,0836.8,5.03,000.00,032.3,025.3,000.0,040.0,031.4,35.0,0000.0,0007.44,0020.89,0005.97
2023-07-30 00:04:00,SystemResetWarning,0836.8,4.97,000.00,032.1,025.6,000.0,040.0,031.3,35.1,0000.0,0007.36,0020.41,0005.96
2023-07-30 00:05:00,SystemResetWarning,0836.8,5.03,000.00,032.1,026.1,000.0,040.0,031.4,35.6,0000.0,0007.32,0018.18,0005.93
2023-07-30 00:06:00,SystemResetWarning,0836.8,5.01,000.00,032.3,026.5,000.0,040.0,031.7,35.0,0000.0,0007.30,0017.88,0005.89
2023-07-30 00:07:00,SystemResetWarning,0836.8,4.97,000.00,032.5,027.0,000.0,040.0,031.8,34.4,0000.0,0007.30,0018.11,0005.83
2023-07-30 00:08:00,SystemResetWarning,0836.8,5.01,000.00,032.6,027.4,000.0,040.0,031.9,34.3,0000.0,0007.25,0018.60,0005.80
2023-07-30 00:09:00,SystemResetWarning,0836.8,5.01,000.00,032.7,027.7,000.0,040.1,032.0,34.2,0000.0,0007.20,0018.70,0005.78
2023-07-30 00:10:00,SystemResetWarning,0836.9,4.99,000.00,032.7,027.4,000.0,040.1,031.9,34.3,0000.0,0007.16,0018.21,0005.75
2023-07-30 00:11:00,SystemResetWarning,0836.8,4.99,000.00,032.7,026.0,000.0,040.0,031.7,34.4,0000.0,0007.15,0018.97,0005.71
2023-07-30 00:12:00,SystemResetWarning,0836.8,5.00,000.00,032.7,025.3,000.0,039.9,031.5,34.3,0000.0,0007.12,0018.65,0005.67
2023-07-30 00:13:00,SystemResetWarning,0836.9,5.00,000.00,032.5,025.4,000.0,039.9,031.2,34.6,0000.0,0007.11,0017.83,0005.64
2023-07-30 00:14:00,SystemResetWarning,0836.8,5.00,000.00,032.3,025.7,000.0,040.0,031.2,35.0,0000.0,0007.09,0017.88,0005.60
2023-07-30 00:15:00,SystemResetWarning,0837.0,5.01,000.00,032.3,026.2,000.0,040.0,031.4,34.8,0000.0,0007.04,0018.00,0005.57
2023-07-30 00:16:00,SystemResetWarning,0837.0,4.99,000.00,032.3,026.6,000.0,040.0,031.5,34.9,0000.0,0007.10,0019.05,0005.56
2023-07-30 00:17:00,SystemResetWarning,0837.0,5.00,000.00,032.3,027.1,000.0,040.1,031.6,35.1,0000.0,0007.17,0019.23,0005.55
2023-07-30 00:18:00,SystemResetWarning,0837.0,5.00,000.00,032.4,027.5,000.0,040.1,031.8,35.1,0000.0,0007.18,0018.73,0005.56
2023-07-30 00:19:00,SystemResetWarning,0837.0,5.01,000.00,032.6,027.7,000.0,040.1,032.0,34.5,0000.0,0007.24,0020.96,0005.58
2023-07-30 00:20:00,SystemResetWarning,0837.0,4.97,000.00,032.7,026.8,000.0,040.0,031.9,34.1,0000.0,0007.31,0023.00,0005.59
2023-07-30 00:21:00,SystemResetWarning,0837.0,5.03,000.00,032.8,025.5,000.0,039.9,031.6,33.9,0000.0,0007.38,0023.03,0005.60
2023-07-30 00:22:00,SystemResetWarning,0837.0,4.99,000.00,032.7,025.2,000.0,039.8,031.4,34.1,0000.0,0007.41,0022.79,0005.61
2023-07-30 00:23:00,SystemResetWarning,0837.2,4.99,000.00,032.5,025.5,000.0,039.9,031.3,34.5,0000.0,0007.39,0022.66,0005.62
2023-07-30 00:24:00,SystemResetWarning,0837.2,4.99,000.00,032.4,025.9,000.0,039.9,031.3,34.9,0000.0,0007.38,0021.94,0005.62
2023-07-30 00:25:00,SystemResetWarning,0837.2,5.01,000.00,032.3,026.4,000.0,040.0,031.4,34.8,0000.0,0007.41,0022.57,0005.62
2023-07-30 00:26:00,SystemResetWarning,0837.2,5.00,000.00,032.3,026.8,000.0,040.0,031.5,34.9,0000.0,0007.41,0022.94,0005.61
2023-07-30 00:27:00,SystemResetWarning,0837.2,5.01,000.00,032.3,027.2,000.0,040.0,031.7,35.0,0000.0,0007.40,0022.32,0005.60
2023-07-30 00:28:00,SystemResetWarning,0837.2,5.00,000.00,032.5,027.6,000.0,040.0,031.8,34.7,0000.0,0007.34,0021.84,0005.60
2023-07-30 00:29:00,SystemResetWarning,0837.2,4.99,000.00,032.5,027.5,000.0,040.0,031.9,34.7,0000.0,0007.26,0022.14,0005.59
2023-07-30 00:30:00,SystemResetWarning,0837.2,5.01,000.00,032.6,026.2,000.0,039.9,031.7,34.5,0000.0,0007.20,0021.19,0005.57
2023-07-30 00:31:00,SystemResetWarning,0837.2,5.00,000.00,032.5,025.3,000.0,039.8,031.5,34.5,0000.0,0007.17,0017.94,0005.54
2023-07-30 00:32:00,SystemResetWarning,0837.2,4.98,000.00,032.4,025.2,000.0,039.8,031.2,34.9,0000.0,0007.09,0017.36,0005.51
2023-07-30 00:33:00,SystemResetWarning,0837.2,5.03,000.00,032.2,025.5,000.0,039.8,031.2,35.3,0000.0,0007.02,0017.02,0005.49
2023-07-30 00:34:00,SystemResetWarning,0837.2,5.01,000.00,032.4,026.0,000.0,039.9,031.4,35.1,0000.0,0006.98,0016.43,0005.48
2023-07-30 00:35:00,SystemResetWarning,0837.2,4.98,000.00,032.6,026.5,000.0,039.9,031.6,34.8,0000.0,0006.93,0016.68,0005.46
2023-07-30 00:36:00,SystemResetWarning,0837.3,4.99,000.00,032.7,026.9,000.0,039.9,031.7,34.7,0000.0,0006.89,0016.84,0005.44
2023-07-30 00:37:00,SystemResetWarning,0837.2,4.99,000.00,032.7,027.3,000.0,040.0,031.8,34.5,0000.0,0006.91,0016.63,0005.44
2023-07-30 00:38:00,SystemResetWarning,0837.2,5.00,000.00,032.8,027.6,000.0,040.0,031.8,34.4,0000.0,0006.90,0016.71,0005.42
2023-07-30 00:39:00,SystemResetWarning,0837.3,5.00,000.00,032.8,027.9,000.0,040.1,031.9,34.3,0000.0,0006.90,0016.32,0005.41
2023-07-30 00:40:00,SystemResetWarning,0837.2,5.00,000.00,032.8,027.3,000.0,040.1,031.9,34.2,0000.0,0006.91,0015.67,0005.39
2023-07-30 00:41:00,SystemResetWarning,0837.2,5.00,000.00,032.8,025.8,000.0,040.0,031.7,34.3,0000.0,0006.85,0015.16,0005.38
2023-07-30 00:42:00,SystemResetWarning,0837.2,5.00,000.00,032.7,025.3,000.0,039.9,031.6,34.5,0000.0,0006.84,0015.95,0005.37
2023-07-30 00:43:00,SystemResetWarning,0837.2,5.00,000.00,032.5,025.4,000.0,039.9,031.3,34.8,0000.0,0006.83,0016.93,0005.36
2023-07-30 00:44:00,SystemResetWarning,0837.2,4.99,000.00,032.4,025.8,000.0,040.0,031.3,35.2,0000.0,0006.82,0017.19,0005.36
2023-07-30 00:45:00,SystemResetWarning,0837.2,5.02,000.00,032.4,026.3,000.0,040.0,031.5,35.3,0000.0,0006.81,0018.05,0005.35
2023-07-30 00:46:00,SystemResetWarning,0837.2,5.00,000.00,032.6,026.7,000.0,040.0,031.7,34.9,0000.0,0006.84,0018.96,0005.33
2023-07-30 00:47:00,SystemResetWarning,0837.2,4.98,000.00,032.8,027.1,000.0,040.1,031.9,34.6,0000.0,0006.83,0019.18,0005.32
2023-07-30 00:48:00,SystemResetWarning,0837.2,5.01,000.00,032.9,027.5,000.0,040.1,031.9,34.4,0000.0,0006.77,0018.26,0005.31
2023-07-30 00:49:00,SystemResetWarning,0837.2,5.01,000.00,032.9,027.8,000.0,040.2,032.0,34.3,0000.0,0006.74,0019.26,0005.31
2023-07-30 00:50:00,SystemResetWarning,0837.2,4.98,000.00,032.9,027.4,000.0,040.2,031.9,34.3,0000.0,0006.74,0020.25,0005.32
2023-07-30 00:51:00,SystemResetWarning,0837.2,5.00,000.00,032.9,026.0,000.0,040.1,031.7,34.3,0000.0,0006.75,0020.62,0005.33
2023-07-30 00:52:00,SystemResetWarning,0837.2,5.01,000.00,032.9,025.3,000.0,040.0,031.5,34.3,0000.0,0006.77,0021.51,0005.35
2023-07-30 00:53:00,SystemResetWarning,0837.2,4.99,000.00,032.7,025.3,000.0,040.0,031.3,34.7,0000.0,0006.74,0022.17,0005.34
2023-07-30 00:54:00,SystemResetWarning,0837.2,5.00,000.00,032.5,025.7,000.0,040.1,031.3,35.3,0000.0,0006.69,0021.56,0005.32
2023-07-30 00:55:00,SystemResetWarning,0837.2,5.01,000.00,032.6,026.1,000.0,040.1,031.5,35.3,0000.0,0006.66,0022.23,0005.31
2023-07-30 00:56:00,SystemResetWarning,0837.2,5.01,000.00,032.8,026.6,000.0,040.1,031.7,34.9,0000.0,0006.67,0021.65,0005.31
2023-07-30 00:57:00,SystemResetWarning,0837.2,4.97,000.00,032.9,027.0,000.0,040.2,031.9,34.4,0000.0,0006.73,0020.94,0005.32
2023-07-30 00:58:00,SystemResetWarning,0837.3,5.01,000.00,033.0,027.4,000.0,040.2,031.9,34.2,0000.0,0006.80,0020.12,0005.33
2023-07-30 00:59:00,SystemResetWarning,0837.2,5.01,000.00,033.1,027.7,000.0,040.3,032.0,34.3,0000.0,0006.82,0020.53,0005.34
